| time (UTC) | temp C | wind direction | speed KPH | gust KPH | rain 1hr cm | rain 24hr cm | rain mn cm | humidity % | barometer mb |
| 20260502163502 | 23 | 135 | 3.2 | 0.0 | 0.00 | 0.00 | 0.00 | 28 | 1016.5 |
| 20260502163001 | 23 | 105 | 6.4 | 0.0 | 0.00 | 0.00 | 0.00 | 29 | 1016.5 |
| 20260502162502 | 23 | 48 | 3.2 | 0.0 | 0.00 | 0.00 | 0.00 | 29 | 1016.6 |
| 20260502162001 | 23 | 75 | 3.2 | 0.0 | 0.00 | 0.00 | 0.00 | 28 | 1016.8 |
| 20260502161502 | 24 | 340 | 4.8 | 0.0 | 0.00 | 0.00 | 0.00 | 27 | 1016.8 |
| 20260502161001 | 23 | 278 | 3.2 | 0.0 | 0.00 | 0.00 | 0.00 | 27 | 1016.8 |
| 20260502160502 | 23 | 333 | 4.8 | 0.0 | 0.00 | 0.00 | 0.00 | 27 | 1016.8 |
| 20260502152002 | 23 | 278 | 1.6 | 0.0 | 0.00 | 0.00 | 0.00 | 26 | 1017.3 |
| 20260502151501 | 23 | 343 | 1.6 | 0.0 | 0.00 | 0.00 | 0.00 | 27 | 1017.4 |
| 20260502151001 | 23 | 65 | 4.8 | 0.0 | 0.00 | 0.00 | 0.00 | 27 | 1017.5 |
| 20260502150502 | 23 | 277 | 4.8 | 0.0 | 0.00 | 0.00 | 0.00 | 26 | 1017.5 |
| 20260502130502 | 22 | 186 | 6.4 | 0.0 | 0.00 | 0.00 | 0.00 | 32 | 1019.2 |
| 20260502123503 | 21 | 241 | 6.4 | 0.0 | 0.00 | 0.00 | 0.00 | 35 | 1019.4 |
| 20260502123001 | 22 | 238 | 4.8 | 0.0 | 0.00 | 0.00 | 0.00 | 34 | 1019.3 |
| 20260502122514 | 21 | 112 | 3.2 | 0.0 | 0.00 | 0.00 | 0.00 | 34 | 1019.4 |
| 20260502122002 | 21 | 49 | 8.0 | 0.0 | 0.00 | 0.00 | 0.00 | 32 | 1019.5 |
| 20260502121503 | 22 | 164 | 6.4 | 0.0 | 0.00 | 0.00 | 0.00 | 32 | 1019.6 |
| 20260502121001 | 21 | 157 | 3.2 | 0.0 | 0.00 | 0.00 | 0.00 | 34 | 1019.8 |
| 20260502120502 | 21 | 242 | 4.8 | 0.0 | 0.00 | 0.00 | 0.00 | 36 | 1019.9 |
| 20260502115502 | 21 | 185 | 4.8 | 0.0 | 0.00 | 0.00 | 0.00 | 36 | 1019.8 |
| 20260502114502 | 21 | 150 | 6.4 | 0.0 | 0.00 | 0.00 | 0.00 | 38 | 1020.0 |
| 20260502114016 | 21 | 169 | 9.7 | 0.0 | 0.00 | 0.00 | 0.00 | 38 | 1020.2 |
| 20260502113505 | 21 | 205 | 4.8 | 0.0 | 0.00 | 0.00 | 0.00 | 39 | 1020.2 |
| 20260502113001 | 20 | 0 | 0.0 | 0.0 | 0.00 | 0.00 | 0.00 | 40 | 1020.4 |
| 20260502112502 | 21 | 205 | 4.8 | 0.0 | 0.00 | 0.00 | 0.00 | 38 | 1020.4 |
| 20260502112003 | 21 | 202 | 4.8 | 0.0 | 0.00 | 0.00 | 0.00 | 40 | 1020.4 |
| 20260502111502 | 20 | 188 | 3.2 | 0.0 | 0.00 | 0.00 | 0.00 | 40 | 1020.4 |
| 20260502111007 | 20 | 208 | 3.2 | 0.0 | 0.00 | 0.00 | 0.00 | 39 | 1020.5 |
| 20260502110501 | 20 | 262 | 1.6 | 0.0 | 0.00 | 0.00 | 0.00 | 41 | 1020.6 |
| 20260502110002 | 20 | 253 | 8.0 | 0.0 | 0.00 | 0.00 | 0.00 | 43 | 1020.6 |
| 20260502105502 | 20 | 130 | 3.2 | 0.0 | 0.00 | 0.00 | 0.00 | 42 | 1020.6 |
| 20260502105002 | 20 | 214 | 3.2 | 0.0 | 0.00 | 0.00 | 0.00 | 44 | 1020.6 |
| 20260502104502 | 20 | 156 | 3.2 | 0.0 | 0.00 | 0.00 | 0.00 | 43 | 1020.8 |
| 20260502104002 | 20 | 104 | 3.2 | 0.0 | 0.00 | 0.00 | 0.00 | 42 | 1020.7 |
| 20260502103502 | 19 | 210 | 6.4 | 0.0 | 0.00 | 0.00 | 0.00 | 43 | 1020.9 |
| 20260502103001 | 19 | 238 | 8.0 | 0.0 | 0.00 | 0.00 | 0.00 | 44 | 1020.9 |
| 20260502102504 | 19 | 274 | 3.2 | 0.0 | 0.00 | 0.00 | 0.00 | 43 | 1021.0 |
| 20260502102002 | 19 | 232 | 6.4 | 0.0 | 0.00 | 0.00 | 0.00 | 44 | 1021.1 |
| 20260502101502 | 18 | 241 | 8.0 | 0.0 | 0.00 | 0.00 | 0.00 | 45 | 1021.1 |
| 20260502101002 | 18 | 184 | 3.2 | 0.0 | 0.00 | 0.00 | 0.00 | 46 | 1021.0 |
| 20260502100502 | 18 | 249 | 4.8 | 0.0 | 0.00 | 0.00 | 0.00 | 46 | 1021.2 |
| 20260502091502 | 17 | 244 | 9.7 | 0.0 | 0.00 | 0.00 | 0.00 | 49 | 1021.7 |
| 20260502091002 | 17 | 231 | 1.6 | 0.0 | 0.00 | 0.00 | 0.00 | 48 | 1021.7 |
| 20260502090502 | 16 | 206 | 8.0 | 0.0 | 0.00 | 0.00 | 0.00 | 50 | 1021.7 |
| 20260502071501 | 12 | 190 | 8.0 | 0.0 | 0.00 | 0.00 | 0.00 | 58 | 1022.1 |
| 20260502071002 | 12 | 198 | 4.8 | 0.0 | 0.00 | 0.00 | 0.00 | 58 | 1022.2 |
| 20260502070501 | 12 | 205 | 4.8 | 0.0 | 0.00 | 0.00 | 0.00 | 57 | 1022.2 |
| 20260502070002 | 11 | 166 | 3.2 | 0.0 | 0.00 | 0.00 | 0.00 | 57 | 1022.3 |
| 20260502065502 | 12 | 180 | 3.2 | 0.0 | 0.00 | 0.00 | 0.00 | 56 | 1022.1 |
| 20260502065001 | 11 | 199 | 1.6 | 0.0 | 0.00 | 0.00 | 0.00 | 57 | 1022.2 |
| 20260502064502 | 10 | 185 | 0.0 | 0.0 | 0.00 | 0.00 | 0.00 | 56 | 1022.2 |
| 20260502064002 | 10 | 173 | 0.0 | 0.0 | 0.00 | 0.00 | 0.00 | 57 | 1022.2 |
| 20260502063503 | 10 | 148 | 1.6 | 0.0 | 0.00 | 0.00 | 0.00 | 58 | 1022.3 |
| 20260502063001 | 9 | 0 | 0.0 | 0.0 | 0.00 | 0.00 | 0.00 | 61 | 1022.2 |
| 20260502062502 | 8 | 129 | 0.0 | 0.0 | 0.00 | 0.00 | 0.00 | 63 | 1022.3 |
| 20260502062001 | 8 | 92 | 3.2 | 0.0 | 0.00 | 0.00 | 0.00 | 63 | 1022.2 |
| 20260502061502 | 8 | 133 | 3.2 | 0.0 | 0.00 | 0.00 | 0.00 | 63 | 1022.2 |
| 20260502061002 | 8 | 69 | 1.6 | 0.0 | 0.00 | 0.00 | 0.00 | 65 | 1022.1 |
| 20260502060502 | 7 | 70 | 1.6 | 0.0 | 0.00 | 0.00 | 0.00 | 66 | 1022.2 |
| 20260502060002 | 7 | 45 | 1.6 | 0.0 | 0.00 | 0.00 | 0.00 | 65 | 1022.2 |
| 20260502055501 | 7 | 41 | 3.2 | 0.0 | 0.00 | 0.00 | 0.00 | 67 | 1022.1 |
| 20260502055002 | 6 | 43 | 1.6 | 0.0 | 0.00 | 0.00 | 0.00 | 69 | 1022.1 |
| 20260502054501 | 6 | 40 | 3.2 | 0.0 | 0.00 | 0.00 | 0.00 | 69 | 1022.1 |
| 20260502054002 | 6 | 42 | 3.2 | 0.0 | 0.00 | 0.00 | 0.00 | 69 | 1022.1 |
| 20260502053501 | 6 | 35 | 3.2 | 0.0 | 0.00 | 0.00 | 0.00 | 69 | 1022.1 |
| 20260502053002 | 6 | 119 | 4.8 | 0.0 | 0.00 | 0.00 | 0.00 | 69 | 1022.1 |
| 20260502052501 | 6 | 72 | 3.2 | 0.0 | 0.00 | 0.00 | 0.00 | 68 | 1022.0 |
| 20260502052003 | 6 | 51 | 1.6 | 0.0 | 0.00 | 0.00 | 0.00 | 69 | 1022.1 |
| 20260502051502 | 6 | 43 | 3.2 | 0.0 | 0.00 | 0.00 | 0.00 | 69 | 1022.0 |
| 20260502051001 | 6 | 52 | 1.6 | 0.0 | 0.00 | 0.00 | 0.00 | 69 | 1022.0 |
| 20260502050503 | 6 | 32 | 1.6 | 0.0 | 0.00 | 0.00 | 0.00 | 67 | 1022.0 |
| 20260502050002 | 6 | 33 | 3.2 | 0.0 | 0.00 | 0.00 | 0.00 | 68 | 1021.9 |
| 20260502045503 | 6 | 24 | 3.2 | 0.0 | 0.00 | 0.00 | 0.00 | 68 | 1021.9 |
| 20260502045001 | 6 | 347 | 3.2 | 0.0 | 0.00 | 0.00 | 0.00 | 69 | 1021.9 |
| 20260502044502 | 6 | 327 | 3.2 | 0.0 | 0.00 | 0.00 | 0.00 | 69 | 1021.9 |
| 20260502044002 | 6 | 41 | 3.2 | 0.0 | 0.00 | 0.00 | 0.00 | 70 | 1021.8 |
| 20260502043501 | 5 | 41 | 3.2 | 0.0 | 0.00 | 0.00 | 0.00 | 70 | 1021.8 |
| 20260502043002 | 5 | 337 | 1.6 | 0.0 | 0.00 | 0.00 | 0.00 | 71 | 1021.9 |
| 20260502042501 | 6 | 332 | 3.2 | 0.0 | 0.00 | 0.00 | 0.00 | 70 | 1021.9 |
| 20260502042002 | 6 | 37 | 1.6 | 0.0 | 0.00 | 0.00 | 0.00 | 71 | 1021.8 |
| 20260502041501 | 5 | 64 | 1.6 | 0.0 | 0.00 | 0.00 | 0.00 | 71 | 1021.7 |
| 20260502041002 | 5 | 52 | 1.6 | 0.0 | 0.00 | 0.00 | 0.00 | 71 | 1021.7 |
| 20260502040501 | 5 | 77 | 3.2 | 0.0 | 0.00 | 0.00 | 0.00 | 72 | 1021.7 |
| 20260502040002 | 5 | 56 | 1.6 | 0.0 | 0.00 | 0.00 | 0.00 | 71 | 1021.7 |
| 20260502035505 | 5 | 30 | 3.2 | 0.0 | 0.00 | 0.00 | 0.00 | 71 | 1021.6 |
| 20260502035002 | 5 | 53 | 3.2 | 0.0 | 0.00 | 0.00 | 0.00 | 70 | 1021.6 |
| 20260502034501 | 6 | 69 | 3.2 | 0.0 | 0.00 | 0.00 | 0.00 | 69 | 1021.7 |
| 20260502034001 | 6 | 73 | 4.8 | 0.0 | 0.00 | 0.00 | 0.00 | 68 | 1021.6 |
| 20260502033501 | 6 | 75 | 3.2 | 0.0 | 0.00 | 0.00 | 0.00 | 68 | 1021.7 |
| 20260502033001 | 6 | 56 | 4.8 | 0.0 | 0.00 | 0.00 | 0.00 | 68 | 1021.7 |
| 20260502032502 | 6 | 43 | 4.8 | 0.0 | 0.00 | 0.00 | 0.00 | 67 | 1021.6 |
| 20260502032001 | 6 | 46 | 3.2 | 0.0 | 0.00 | 0.00 | 0.00 | 69 | 1021.6 |
| 20260502031501 | 6 | 40 | 6.4 | 0.0 | 0.00 | 0.00 | 0.00 | 67 | 1021.6 |
| 20260502031002 | 6 | 29 | 6.4 | 0.0 | 0.00 | 0.00 | 0.00 | 68 | 1021.6 |
| 20260502030501 | 6 | 9 | 4.8 | 0.0 | 0.00 | 0.00 | 0.00 | 68 | 1021.8 |
| 20260502030001 | 6 | 37 | 3.2 | 0.0 | 0.00 | 0.00 | 0.00 | 67 | 1021.8 |
| 20260502025502 | 6 | 56 | 3.2 | 0.0 | 0.00 | 0.00 | 0.00 | 67 | 1021.7 |
| 20260502025001 | 6 | 62 | 3.2 | 0.0 | 0.00 | 0.00 | 0.00 | 67 | 1021.7 |
| 20260502024501 | 6 | 82 | 3.2 | 0.0 | 0.00 | 0.00 | 0.00 | 67 | 1021.7 |
| 20260502024002 | 6 | 112 | 3.2 | 0.0 | 0.00 | 0.00 | 0.00 | 67 | 1021.8 |
| 20260502023501 | 6 | 87 | 3.2 | 0.0 | 0.00 | 0.00 | 0.00 | 65 | 1021.7 |
| 20260502023001 | 7 | 63 | 3.2 | 0.0 | 0.00 | 0.00 | 0.00 | 64 | 1021.8 |
| 20260502022502 | 7 | 59 | 1.6 | 0.0 | 0.00 | 0.00 | 0.00 | 63 | 1021.9 |
| 20260502022001 | 7 | 50 | 4.8 | 0.0 | 0.00 | 0.00 | 0.00 | 61 | 1021.7 |
| 20260502021502 | 8 | 42 | 4.8 | 0.0 | 0.00 | 0.00 | 0.00 | 60 | 1021.7 |
| 20260502021003 | 8 | 49 | 4.8 | 0.0 | 0.00 | 0.00 | 0.00 | 60 | 1021.7 |
| 20260502020501 | 8 | 42 | 3.2 | 0.0 | 0.00 | 0.00 | 0.00 | 57 | 1021.8 |
| 20260502020005 | 9 | 30 | 6.4 | 0.0 | 0.00 | 0.00 | 0.00 | 57 | 1021.6 |
| 20260502015502 | 8 | 7 | 3.2 | 0.0 | 0.00 | 0.00 | 0.00 | 59 | 1021.7 |
| 20260502015001 | 8 | 13 | 3.2 | 0.0 | 0.00 | 0.00 | 0.00 | 59 | 1021.7 |
| 20260502014502 | 9 | 343 | 3.2 | 0.0 | 0.00 | 0.00 | 0.00 | 57 | 1021.7 |
| 20260502014002 | 9 | 25 | 4.8 | 0.0 | 0.00 | 0.00 | 0.00 | 57 | 1021.8 |
| 20260502013501 | 8 | 16 | 4.8 | 0.0 | 0.00 | 0.00 | 0.00 | 59 | 1021.8 |
| 20260502013002 | 8 | 31 | 4.8 | 0.0 | 0.00 | 0.00 | 0.00 | 58 | 1021.9 |
| 20260502012502 | 8 | 357 | 3.2 | 0.0 | 0.00 | 0.00 | 0.00 | 59 | 1021.7 |
| 20260502012001 | 8 | 21 | 6.4 | 0.0 | 0.00 | 0.00 | 0.00 | 58 | 1021.8 |
| 20260502011502 | 8 | 29 | 9.7 | 0.0 | 0.00 | 0.00 | 0.00 | 58 | 1021.8 |
| 20260502011002 | 8 | 40 | 8.0 | 0.0 | 0.00 | 0.00 | 0.00 | 59 | 1021.8 |
| 20260502010501 | 8 | 44 | 6.4 | 0.0 | 0.00 | 0.00 | 0.00 | 60 | 1021.9 |
| 20260502010001 | 8 | 47 | 6.4 | 0.0 | 0.00 | 0.00 | 0.00 | 58 | 1021.9 |
| 20260502005507 | 9 | 55 | 4.8 | 0.0 | 0.00 | 0.00 | 0.00 | 57 | 1021.9 |
| 20260502005001 | 9 | 45 | 6.4 | 0.0 | 0.00 | 0.00 | 0.00 | 56 | 1021.9 |
| 20260502004502 | 9 | 42 | 6.4 | 0.0 | 0.00 | 0.00 | 0.00 | 56 | 1021.9 |
| 20260502004002 | 10 | 35 | 8.0 | 0.0 | 0.00 | 0.00 | 0.00 | 55 | 1021.9 |
| 20260502003501 | 10 | 23 | 6.4 | 0.0 | 0.00 | 0.00 | 0.00 | 54 | 1022.1 |
| 20260502003001 | 10 | 20 | 6.4 | 0.0 | 0.00 | 0.00 | 0.00 | 53 | 1022.1 |
| 20260502002502 | 10 | 29 | 9.7 | 0.0 | 0.00 | 0.00 | 0.00 | 54 | 1022.0 |
| 20260502002001 | 10 | 22 | 9.7 | 0.0 | 0.00 | 0.00 | 0.00 | 52 | 1022.0 |
| 20260502001501 | 11 | 21 | 6.4 | 0.0 | 0.00 | 0.00 | 0.00 | 52 | 1022.0 |
| 20260502001002 | 11 | 21 | 8.0 | 0.0 | 0.00 | 0.00 | 0.00 | 51 | 1022.1 |
| 20260502000501 | 11 | 23 | 8.0 | 0.0 | 0.00 | 0.00 | 0.00 | 52 | 1022.1 |
| 20260502000001 | 11 | 25 | 8.0 | 0.0 | 0.00 | 0.00 | 0.00 | 52 | 1022.1 |
| 20260501235502 | 10 | 338 | 6.4 | 0.0 | 0.00 | 0.00 | 0.00 | 53 | 1022.1 |
| 20260501235001 | 11 | 8 | 4.8 | 0.0 | 0.00 | 0.00 | 0.00 | 51 | 1022.1 |
| 20260501234501 | 11 | 350 | 4.8 | 0.0 | 0.00 | 0.00 | 0.00 | 51 | 1022.1 |
| 20260501234002 | 11 | 4 | 3.2 | 0.0 | 0.00 | 0.00 | 0.00 | 51 | 1022.2 |
| 20260501233501 | 11 | 1 | 3.2 | 0.0 | 0.00 | 0.00 | 0.00 | 51 | 1022.3 |
| 20260501233002 | 11 | 357 | 3.2 | 0.0 | 0.00 | 0.00 | 0.00 | 51 | 1022.2 |
| 20260501232502 | 11 | 20 | 6.4 | 0.0 | 0.00 | 0.00 | 0.00 | 52 | 1022.1 |
| 20260501232001 | 11 | 21 | 8.0 | 0.0 | 0.00 | 0.00 | 0.00 | 51 | 1022.1 |
| 20260501231502 | 11 | 29 | 6.4 | 0.0 | 0.00 | 0.00 | 0.00 | 51 | 1022.1 |
| 20260501231002 | 11 | 41 | 8.0 | 0.0 | 0.00 | 0.00 | 0.00 | 51 | 1022.1 |
| 20260501230501 | 11 | 33 | 9.7 | 0.0 | 0.00 | 0.00 | 0.00 | 51 | 1022.2 |
| 20260501230001 | 11 | 46 | 9.7 | 0.0 | 0.00 | 0.00 | 0.00 | 50 | 1022.1 |
| 20260501225502 | 11 | 42 | 9.7 | 0.0 | 0.00 | 0.00 | 0.00 | 50 | 1022.1 |
| 20260501225001 | 11 | 43 | 9.7 | 0.0 | 0.00 | 0.00 | 0.00 | 50 | 1022.2 |
| 20260501224501 | 11 | 46 | 11.3 | 0.0 | 0.00 | 0.00 | 0.00 | 49 | 1022.2 |
| 20260501224002 | 12 | 42 | 8.0 | 0.0 | 0.00 | 0.00 | 0.00 | 48 | 1022.2 |
| 20260501223501 | 12 | 34 | 9.7 | 0.0 | 0.00 | 0.00 | 0.00 | 48 | 1022.2 |
| 20260501223002 | 12 | 44 | 9.7 | 0.0 | 0.00 | 0.00 | 0.00 | 48 | 1022.2 |
| 20260501222502 | 12 | 47 | 12.9 | 0.0 | 0.00 | 0.00 | 0.00 | 47 | 1022.2 |
| 20260501222001 | 12 | 35 | 8.0 | 0.0 | 0.00 | 0.00 | 0.00 | 46 | 1022.4 |
| 20260501221501 | 12 | 28 | 9.7 | 0.0 | 0.00 | 0.00 | 0.00 | 46 | 1022.3 |
| 20260501221002 | 12 | 39 | 9.7 | 0.0 | 0.00 | 0.00 | 0.00 | 46 | 1022.2 |
| 20260501220501 | 12 | 40 | 12.9 | 0.0 | 0.00 | 0.00 | 0.00 | 45 | 1022.1 |
| 20260501220002 | 13 | 48 | 9.7 | 0.0 | 0.00 | 0.00 | 0.00 | 45 | 1022.2 |
| 20260501215502 | 13 | 51 | 11.3 | 0.0 | 0.00 | 0.00 | 0.00 | 45 | 1022.2 |
| 20260501215001 | 13 | 59 | 6.4 | 0.0 | 0.00 | 0.00 | 0.00 | 44 | 1022.2 |
| 20260501214501 | 13 | 45 | 8.0 | 0.0 | 0.00 | 0.00 | 0.00 | 45 | 1022.2 |
| 20260501214002 | 13 | 31 | 9.7 | 0.0 | 0.00 | 0.00 | 0.00 | 44 | 1022.3 |
| 20260501213501 | 13 | 39 | 11.3 | 0.0 | 0.00 | 0.00 | 0.00 | 44 | 1022.3 |
| 20260501213002 | 13 | 35 | 9.7 | 0.0 | 0.00 | 0.00 | 0.00 | 43 | 1022.3 |
| 20260501212502 | 13 | 41 | 11.3 | 0.0 | 0.00 | 0.00 | 0.00 | 44 | 1022.3 |
| 20260501212001 | 13 | 56 | 9.7 | 0.0 | 0.00 | 0.00 | 0.00 | 43 | 1022.3 |
| 20260501211502 | 13 | 46 | 9.7 | 0.0 | 0.00 | 0.00 | 0.00 | 43 | 1022.3 |
| 20260501211002 | 13 | 27 | 8.0 | 0.0 | 0.00 | 0.00 | 0.00 | 42 | 1022.4 |
| 20260501210502 | 13 | 29 | 6.4 | 0.0 | 0.00 | 0.00 | 0.00 | 42 | 1022.4 |
| 20260501210002 | 14 | 29 | 9.7 | 0.0 | 0.00 | 0.00 | 0.00 | 42 | 1022.3 |
| 20260501205502 | 13 | 28 | 9.7 | 0.0 | 0.00 | 0.00 | 0.00 | 42 | 1022.4 |
| 20260501205001 | 13 | 31 | 8.0 | 0.0 | 0.00 | 0.00 | 0.00 | 42 | 1022.3 |
| 20260501204501 | 13 | 38 | 9.7 | 0.0 | 0.00 | 0.00 | 0.00 | 42 | 1022.3 |
| 20260501204002 | 13 | 29 | 9.7 | 0.0 | 0.00 | 0.00 | 0.00 | 42 | 1022.3 |
| 20260501203501 | 13 | 25 | 8.0 | 0.0 | 0.00 | 0.00 | 0.00 | 42 | 1022.4 |
| 20260501203001 | 13 | 34 | 11.3 | 0.0 | 0.00 | 0.00 | 0.00 | 42 | 1022.3 |
| 20260501202502 | 14 | 38 | 11.3 | 0.0 | 0.00 | 0.00 | 0.00 | 41 | 1022.2 |
| 20260501202001 | 14 | 42 | 11.3 | 0.0 | 0.00 | 0.00 | 0.00 | 41 | 1022.3 |
| 20260501201502 | 14 | 45 | 8.0 | 0.0 | 0.00 | 0.00 | 0.00 | 40 | 1022.3 |
| 20260501201002 | 15 | 46 | 8.0 | 0.0 | 0.00 | 0.00 | 0.00 | 40 | 1022.3 |
| 20260501200501 | 15 | 44 | 9.7 | 0.0 | 0.00 | 0.00 | 0.00 | 39 | 1022.3 |
| 20260501200001 | 15 | 27 | 6.4 | 0.0 | 0.00 | 0.00 | 0.00 | 39 | 1022.3 |
| 20260501195502 | 15 | 42 | 8.0 | 0.0 | 0.00 | 0.00 | 0.00 | 39 | 1022.3 |
| 20260501195001 | 15 | 42 | 9.7 | 0.0 | 0.00 | 0.00 | 0.00 | 39 | 1022.2 |
| 20260501194501 | 15 | 47 | 9.7 | 0.0 | 0.00 | 0.00 | 0.00 | 39 | 1022.2 |
| 20260501194002 | 15 | 63 | 6.4 | 0.0 | 0.00 | 0.00 | 0.00 | 38 | 1022.2 |
| 20260501193503 | 15 | 37 | 9.7 | 0.0 | 0.00 | 0.00 | 0.00 | 38 | 1022.1 |
| 20260501193002 | 15 | 36 | 9.7 | 0.0 | 0.00 | 0.00 | 0.00 | 38 | 1022.1 |
| 20260501192502 | 16 | 38 | 8.0 | 0.0 | 0.00 | 0.00 | 0.00 | 37 | 1022.0 |
| 20260501192001 | 16 | 41 | 9.7 | 0.0 | 0.00 | 0.00 | 0.00 | 37 | 1022.0 |
| 20260501191501 | 16 | 39 | 8.0 | 0.0 | 0.00 | 0.00 | 0.00 | 37 | 1022.1 |
| 20260501191002 | 16 | 49 | 9.7 | 0.0 | 0.00 | 0.00 | 0.00 | 37 | 1022.0 |
| 20260501190502 | 16 | 53 | 8.0 | 0.0 | 0.00 | 0.00 | 0.00 | 36 | 1022.1 |
| 20260501190002 | 16 | 45 | 8.0 | 0.0 | 0.00 | 0.00 | 0.00 | 36 | 1022.0 |
| 20260501185501 | 16 | 36 | 8.0 | 0.0 | 0.00 | 0.00 | 0.00 | 36 | 1021.9 |
| 20260501185002 | 16 | 42 | 6.4 | 0.0 | 0.00 | 0.00 | 0.00 | 35 | 1021.8 |
| 20260501184501 | 17 | 55 | 9.7 | 0.0 | 0.00 | 0.00 | 0.00 | 34 | 1021.8 |
| 20260501184002 | 17 | 56 | 8.0 | 0.0 | 0.00 | 0.00 | 0.00 | 34 | 1021.7 |
| 20260501183501 | 17 | 60 | 9.7 | 0.0 | 0.00 | 0.00 | 0.00 | 33 | 1021.7 |
| 20260501183002 | 17 | 69 | 8.0 | 0.0 | 0.00 | 0.00 | 0.00 | 33 | 1021.6 |
| 20260501182502 | 18 | 59 | 4.8 | 0.0 | 0.00 | 0.00 | 0.00 | 32 | 1021.6 |
| 20260501182001 | 18 | 66 | 6.4 | 0.0 | 0.00 | 0.00 | 0.00 | 31 | 1021.6 |
| 20260501181502 | 18 | 74 | 12.9 | 0.0 | 0.00 | 0.00 | 0.00 | 31 | 1021.6 |
| 20260501181001 | 18 | 68 | 14.5 | 0.0 | 0.00 | 0.00 | 0.00 | 30 | 1021.4 |
| 20260501180502 | 19 | 87 | 11.3 | 0.0 | 0.00 | 0.00 | 0.00 | 29 | 1021.4 |
| 20260501180001 | 19 | 102 | 11.3 | 0.0 | 0.00 | 0.00 | 0.00 | 29 | 1021.5 |
| 20260501175502 | 19 | 104 | 14.5 | 0.0 | 0.00 | 0.00 | 0.00 | 28 | 1021.3 |
| 20260501175002 | 19 | 93 | 6.4 | 0.0 | 0.00 | 0.00 | 0.00 | 28 | 1021.5 |
| 20260501174502 | 20 | 91 | 9.7 | 0.0 | 0.00 | 0.00 | 0.00 | 27 | 1021.3 |
| 20260501174002 | 20 | 105 | 16.1 | 0.0 | 0.00 | 0.00 | 0.00 | 27 | 1021.3 |
| 20260501173502 | 20 | 75 | 9.7 | 0.0 | 0.00 | 0.00 | 0.00 | 26 | 1021.3 |
| 20260501173002 | 20 | 81 | 9.7 | 0.0 | 0.00 | 0.00 | 0.00 | 26 | 1021.4 |
| 20260501172501 | 20 | 87 | 9.7 | 0.0 | 0.00 | 0.00 | 0.00 | 26 | 1021.4 |
| 20260501172002 | 20 | 68 | 17.7 | 0.0 | 0.00 | 0.00 | 0.00 | 25 | 1021.4 |
| 20260501171501 | 20 | 92 | 6.4 | 0.0 | 0.00 | 0.00 | 0.00 | 25 | 1021.4 |
| 20260501171002 | 20 | 88 | 12.9 | 0.0 | 0.00 | 0.00 | 0.00 | 26 | 1021.3 |
| 20260501170501 | 20 | 88 | 9.7 | 0.0 | 0.00 | 0.00 | 0.00 | 26 | 1021.3 |
| 20260501170002 | 20 | 76 | 14.5 | 0.0 | 0.00 | 0.00 | 0.00 | 25 | 1021.3 |
| 20260501165502 | 20 | 90 | 8.0 | 0.0 | 0.00 | 0.00 | 0.00 | 25 | 1021.4 |
| 20260501165002 | 20 | 62 | 8.0 | 0.0 | 0.00 | 0.00 | 0.00 | 24 | 1021.5 |
| 20260501164502 | 21 | 75 | 16.1 | 0.0 | 0.00 | 0.00 | 0.00 | 24 | 1021.4 |
| 20260501164002 | 20 | 71 | 14.5 | 0.0 | 0.00 | 0.00 | 0.00 | 24 | 1021.5 |